Regional Weather Roundup
Issued by NWS Cleveland, OH

Home | Current Version | Previous Version | Graphics & Text | Print | Product List | Glossary On
Versions: 1 2 3 4 5 6 7 8 9 10 11 12 13 14 15 16 17 18 19 20 21 22 23 24 25 26 27 28 29 30 31 32 33 34 35 36 37 38 39 40 41 42 43 44 45 46 47 48 49 50
000
ASUS41 KCLE 252100
RWRCLE
OHIO REGIONAL WEATHER ROUNDUP
NATIONAL WEATHER SERVICE WILMINGTON, OH
500 PM EDT MON MAY 25 2015

NOTE: "FAIR" INDICATES FEW OR NO CLOUDS BELOW 12,000 FEET WITH NO
SIGNIFICANT WEATHER AND/OR OBSTRUCTIONS TO VISIBILITY.

OHZ001>008-015>018-024>027-034-035-043-044-252200-
   NORTHWEST OHIO

CITY           SKY/WX    TMP DP  RH WIND       PRES   REMARKS
DEFIANCE       PTSUNNY   80  60  50 SW17G29   29.98F
FINDLAY        PTSUNNY   80  62  54 SW24G36   30.02F
TOLEDO EXPRESS PTSUNNY   79  62  56 SW21G33   29.98F
TOLEDO EXEC    MOSUNNY   82  61  48 SW22G37   29.99F
LIMA           PTSUNNY   78  62  57 SW20G28   30.04F
$$

OHZ009>014-019>023-028>033-038-089-252200-
   NORTHEAST OHIO

CITY           SKY/WX    TMP DP  RH WIND       PRES   REMARKS
CLE-HOPKINS    CLOUDY    79  60  52 SW22G31   30.06F
CLE-LAKEFRONT  PTSUNNY   81  60  48 SW29G38   30.03S
CUY CO. ARPT   PTSUNNY   82  64  54 SW23G35   30.05S
LORAIN-ELYRIA  LGT RAIN  81  62  52 W22G36    30.05F
ASHTABULA      CLOUDY    81  61  50 SW18      30.05S
AKRON-CANTON   PTSUNNY   82  59  45 SW20G29   30.09S
WOOSTER        NOT AVBL
MANSFIELD      PTSUNNY   77  62  59 S20G30    30.10F
YOUNGSTOWN     PTSUNNY   81  61  50 S16G28    30.08F
$$

OHZ042-051>053-060>062-070>072-077>081-252200-
  SOUTHWEST OHIO

CITY           SKY/WX    TMP DP  RH WIND       PRES   REMARKS
CINC-COVINGTON PTSUNNY   76  65  68 SW14G23   30.13F
CINC-LUNKEN    PTSUNNY   77  64  64 SW17G25   30.12F
HAMILTON       PTSUNNY   78  65  63 SW17G28   30.11F
DAYTON         NOT AVBL
WRIGHT-PAT AFB NOT AVBL
DAYTON GENERAL PTSUNNY   75  65  70 SW14G24   30.10F
WILMINGTON     PTSUNNY   79  58  48 SW24G30   30.10F
$$

OHZ036-037-039>041-045>050-054>059-063>069-073>076-082>088-252200-
  CENTRAL AND SOUTHEAST OHIO

CITY           SKY/WX    TMP DP  RH WIND       PRES   REMARKS
COLUMBUS       PTSUNNY   81  60  48 SW17G24   30.09F
OSU AIRPORT    CLOUDY    80  63  55 SW17      30.10F
BOLTON FIELD   CLOUDY   N/A N/A N/A SW17G24   30.10F
RICKENBACK AFB NOT AVBL
NEWARK         CLOUDY    80  61  52 SW17G24   30.10S
MARION         PTSUNNY   75  62  64 SW16      30.09F
LANCASTER      CLOUDY    82  59  45 SW16G24   30.12S
ZANESVILLE     PTSUNNY   81  61  50 SW13      30.12S
NEW PHILLY     PTSUNNY   83  61  47 SW8G21    30.11F
$$



USA.gov is the U.S. government's official web portal to all federal, state and local government web resources and services.